Weather History for Los Angeles, CA

Change the Weather History Date:

Monday, December 3, 2012

  Actual Average Record
Temperature  
Mean Temperature 62 °F 58 °F  
Max Temperature 66 °F 66 °F 94 °F (1958)
Min Temperature 58 °F 50 °F 42 °F (1973)
Degree Days  
Heating Degree Days 3 7  
Month to date heating degree days 7 21  
Since 1 July heating degree days 111 203  
Cooling Degree Days 0 0  
Month to date cooling degree days 0 0  
Year to date cooling degree days 735 550  
Growing Degree Days 13 (Base 50)    
Moisture  
Dew Point 60 °F    
Average Humidity 89    
Maximum Humidity 100    
Minimum Humidity 78    
Precipitation  
Precipitation 0.18 in 0.05 in 0.95 in (1966)
Month to date precipitation 0.26 0.14  
Year to date precipitation 6.33 10.91  
Since 1 July precipitation 1.72 2.10  
Sea Level Pressure  
Sea Level Pressure 30.15 in    
Wind  
Wind Speed 6 mph (SW)    
Max Wind Speed 14 mph    
Max Gust Speed 16 mph    
Visibility 6 miles    
Events Fog , Rain    
T = Trace of Precipitation, MM = Missing Value Source: NWS Daily Summary

Daily Weather History Graph

Daily Weather History Graph

Search for Another Location

Airport:

Trip Planner

Search our weather history database for the weather conditions in past years. The results will help you decide how hot, cold, wet, or windy it might be!

Date:

Astronomy

Dec. 03, 2012 Rise Set
Actual Time 6:42 AM PST 4:44 PM PST
Civil Twilight 6:15 AM PST 5:11 PM PST
Nautical Twilight 5:44 AM PST 5:42 PM PST
Astronomical Twilight 5:14 AM PST 6:12 PM PST
Moon 9:28 PM PST (12/3) 10:15 AM PST (12/3)
Length of Visible Light 10h 56m
Length of Day
10h 01m
Waning Gibbous, 77% of the Moon is Illuminated
Dec 3
Waning Gibbous
Dec 6
Last Quarter
Dec 13
New
Dec 19
First Quarter
Dec 28
Full

Hourly Weather History & Observations

Time (PST) Temp. Dew Point Humidity Pressure Visibility Wind Dir Wind Speed Gust Speed Precip Events Conditions
12:53 AM 63.0 °F 61.0 °F 93% 30.10 in 1.5 mi WSW 9.2 mph - 0.02 in Rain Light Rain
1:53 AM 63.0 °F 62.1 °F 97% 30.12 in 1.5 mi WSW 5.8 mph - 0.04 in Rain Light Rain
1:59 AM 62.6 °F 62.6 °F 100% 30.11 in 2.5 mi SW 5.8 mph - 0.01 in Rain Light Rain
2:19 AM 62.6 °F 62.6 °F 100% 30.11 in 1.2 mi SW 9.2 mph - 0.03 in Rain Light Rain
2:49 AM 62.6 °F 62.6 °F 100% 30.11 in 0.2 mi WSW 8.1 mph - 0.04 in Fog Fog
2:53 AM 63.0 °F 62.1 °F 97% 30.10 in 0.2 mi WSW 9.2 mph - 0.04 in Fog , Rain Light Rain
3:53 AM 63.0 °F 62.1 °F 97% 30.10 in 0.2 mi West 8.1 mph - 0.01 in Fog , Rain Light Rain
4:36 AM 62.6 °F 62.6 °F 100% 30.11 in 1.2 mi West 9.2 mph - 0.00 in   Mist
4:53 AM 63.0 °F 62.1 °F 97% 30.12 in 1.2 mi West 8.1 mph - 0.00 in Rain Light Rain
5:53 AM 62.1 °F 61.0 °F 96% 30.13 in 1.2 mi ENE 5.8 mph - 0.02 in Rain Light Rain
6:53 AM 62.1 °F 61.0 °F 96% 30.14 in 1.0 mi East 6.9 mph - 0.00 in Rain Light Rain
7:53 AM 61.0 °F 60.1 °F 97% 30.15 in 1.0 mi East 6.9 mph - 0.02 in   Light Drizzle
8:53 AM 62.1 °F 61.0 °F 96% 30.17 in 1.5 mi East 6.9 mph - 0.01 in Rain Light Rain
9:53 AM 63.0 °F 61.0 °F 93% 30.19 in 5.0 mi East 5.8 mph - 0.01 in Rain Light Rain
10:27 AM 64.4 °F 62.6 °F 94% 30.19 in 9.0 mi SE 3.5 mph - 0.01 in Rain Light Rain
10:39 AM 64.4 °F 62.6 °F 94% 30.19 in 8.0 mi Calm Calm - 0.01 in   Overcast
10:53 AM 64.0 °F 61.0 °F 90% 30.19 in 9.0 mi SW 5.8 mph - 0.01 in Rain Light Rain
11:53 AM 64.0 °F 61.0 °F 90% 30.17 in 10.0 mi WSW 8.1 mph - 0.00 in   Mostly Cloudy
12:53 PM 64.9 °F 60.1 °F 84% 30.14 in 10.0 mi West 5.8 mph - N/A   Mostly Cloudy
1:53 PM 64.9 °F 60.1 °F 84% 30.13 in 10.0 mi West 6.9 mph - N/A   Mostly Cloudy
2:32 PM 62.6 °F 60.8 °F 94% 30.13 in 10.0 mi West 11.5 mph - N/A   Mostly Cloudy
2:53 PM 63.0 °F 60.1 °F 90% 30.12 in 10.0 mi West 8.1 mph - N/A   Mostly Cloudy
3:53 PM 62.1 °F 57.9 °F 86% 30.13 in 10.0 mi West 9.2 mph - N/A   Mostly Cloudy
4:16 PM 62.6 °F 57.2 °F 82% 30.13 in 10.0 mi WSW 9.2 mph - N/A   Mostly Cloudy
4:53 PM 61.0 °F 57.9 °F 90% 30.13 in 10.0 mi WSW 6.9 mph - N/A   Scattered Clouds
5:53 PM 62.1 °F 57.0 °F 84% 30.14 in 10.0 mi WSW 6.9 mph - N/A   Partly Cloudy
6:53 PM 62.1 °F 55.9 °F 80% 30.15 in 10.0 mi SSW 4.6 mph - N/A   Clear
7:53 PM 62.1 °F 55.9 °F 80% 30.16 in 10.0 mi SW 5.8 mph - N/A   Clear
8:53 PM 61.0 °F 55.9 °F 83% 30.17 in 10.0 mi WSW 3.5 mph - N/A   Clear
9:53 PM 60.1 °F 55.0 °F 83% 30.18 in 10.0 mi ESE 4.6 mph - N/A   Clear
10:53 PM 60.1 °F 55.9 °F 86% 30.19 in 10.0 mi South 3.5 mph - N/A   Scattered Clouds
11:15 PM 60.8 °F 55.4 °F 82% 30.19 in 10.0 mi Calm Calm - N/A   Mostly Cloudy
11:53 PM 59.0 °F 55.9 °F 90% 30.18 in 10.0 mi Calm Calm - N/A   Mostly Cloudy